CW7847 Weather Reports


Display with metric or nautical units.
time (UTC)temp
F
wind
direction
speed
MPH
gust
MPH
rain 1hr
in
rain 24hr
in
rain mn
in
humidity
%
barometer
mb
20260906133026 82 103 1.0 2.0 0.00 0.00 0.00 84 1014.4
20260906131527 80 77 1.0 3.0 0.00 0.00 0.00 86 1014.3
20260906130033 78 18 0.0 0.0 0.00 0.00 0.00 88 1014.2
20260906124520 76 18 0.0 0.0 0.00 0.00 0.00 88 1014.0
20260906123029 75 21 0.0 2.0 0.00 0.00 0.00 87 1013.9
20260906121514 74 287 0.0 0.0 0.00 0.00 0.00 88 1013.7
20260906120012 74 286 0.0 0.0 0.00 0.00 0.00 87 1013.5
20260906114512 74 286 0.0 0.0 0.00 0.00 0.00 87 1013.5
20260906113014 75 286 0.0 0.0 0.00 0.00 0.00 87 1013.2
20260906111506 75 286 0.0 0.0 0.00 0.00 0.00 86 1013.1
20260906110005 75 286 0.0 0.0 0.00 0.00 0.00 86 1013.2
20260906104505 75 286 0.0 0.0 0.00 0.00 0.00 85 1012.9
20260906103009 75 286 0.0 0.0 0.00 0.00 0.00 86 1012.9
20260906101559 75 286 0.0 0.0 0.00 0.00 0.00 85 1012.7
20260906094601 76 286 0.0 0.0 0.00 0.00 0.00 85 1012.5
20260906093055 76 286 0.0 0.0 0.00 0.00 0.00 84 1012.5
20260906091551 77 286 0.0 0.0 0.00 0.00 0.00 84 1012.4
20260906090055 77 286 0.0 0.0 0.00 0.00 0.00 84 1012.5
20260906084554 77 286 0.0 0.0 0.00 0.00 0.00 83 1012.4
20260906083046 77 286 0.0 0.0 0.00 0.00 0.00 82 1012.3
20260906081513 78 286 0.0 0.0 0.00 0.00 0.00 82 1012.1
20260906080011 79 286 0.0 0.0 0.00 0.00 0.00 82 1012.1
20260906074507 79 286 0.0 0.0 0.00 0.00 0.00 81 1012.3
20260906073004 80 287 0.0 0.0 0.00 0.00 0.00 81 1012.4
20260906071502 80 287 0.0 2.0 0.00 0.00 0.00 81 1012.5
20260906070100 80 288 0.0 2.0 0.00 0.00 0.00 80 1012.5
20260906070001 80 288 0.0 2.0 0.00 0.00 0.00 80 1012.5
20260906064556 80 265 0.0 2.0 0.00 0.00 0.00 80 1012.5
20260906063055 81 228 0.0 1.0 0.00 0.00 0.00 80 1012.6
20260906061554 81 227 0.0 0.0 0.00 0.00 0.00 79 1012.7
20260906060049 81 229 0.0 0.0 0.00 0.00 0.00 78 1012.9
20260906054601 82 229 0.0 2.0 0.00 0.00 0.00 78 1013.0
20260906053044 83 282 0.0 3.0 0.00 0.00 0.00 77 1013.0
20260906051544 83 230 0.0 2.0 0.00 0.00 0.00 77 1013.1
20260906050043 83 232 0.0 2.0 0.00 0.00 0.00 76 1012.9
20260906044540 84 237 0.0 3.0 0.00 0.00 0.00 76 1013.0
20260906043040 84 231 0.0 2.0 0.00 0.00 0.00 76 1012.9
20260906041539 84 245 0.0 4.0 0.00 0.00 0.00 76 1012.9
20260906040046 85 251 1.0 5.0 0.00 0.00 0.00 76 1013.1
20260906034547 84 263 1.0 6.0 0.00 0.00 0.00 77 1013.0
20260906033036 83 227 1.0 4.0 0.00 0.00 0.00 77 1013.1
20260906031602 83 281 0.0 0.0 0.00 0.00 0.00 76 1012.9
20260906030035 84 281 0.0 0.0 0.00 0.00 0.00 76 1012.8
20260906024552 84 281 0.0 0.0 0.00 0.00 0.00 74 1012.9
20260906023038 85 281 0.0 0.0 0.00 0.00 0.00 74 1012.6
20260906021532 86 281 0.0 0.0 0.00 0.00 0.00 73 1012.5
20260906020031 87 281 0.0 0.0 0.00 0.00 0.00 72 1012.4
20260906014529 87 281 0.0 0.0 0.00 0.00 0.00 70 1012.0
20260906013030 89 281 0.0 0.0 0.00 0.00 0.00 69 1011.9
20260906011529 89 281 0.0 0.0 0.00 0.00 0.00 68 1011.7
20260906010043 90 281 0.0 0.0 0.00 0.00 0.00 65 1011.6
20260906004629 92 281 0.0 0.0 0.00 0.00 0.00 64 1011.6
20260906003057 93 281 0.0 0.0 0.00 0.00 0.00 59 1011.5
20260906001556 95 281 0.0 0.0 0.00 0.00 0.00 58 1011.6
20260906000026 97 281 0.0 0.0 0.00 0.00 0.00 57 1011.5
20260905234525 98 281 0.0 0.0 0.00 0.00 0.00 58 1011.5
20260905233057 98 281 0.0 0.0 0.00 0.00 0.00 57 1011.5
20260905231555 96 281 0.0 0.0 0.00 0.00 0.00 58 1011.5
20260905230031 96 281 0.0 1.0 0.00 0.00 0.00 59 1011.3
20260905224524 95 279 0.0 2.0 0.00 0.00 0.00 58 1011.4
20260905223021 96 279 0.0 2.0 0.00 0.00 0.00 55 1011.5
20260905221520 99 355 0.0 2.0 0.00 0.00 0.00 51 1011.6
20260905220022 100 121 1.0 2.0 0.00 0.00 0.00 50 1011.6
20260905214515 99 80 1.0 3.0 0.00 0.00 0.00 52 1011.6
20260905213047 99 71 2.0 10.0 0.00 0.00 0.00 52 1011.7
20260905211600 99 78 0.0 2.0 0.00 0.00 0.00 52 1011.7
20260905210051 99 148 1.0 7.0 0.00 0.00 0.00 51 1011.7
20260905204542 99 70 2.0 8.0 0.00 0.00 0.00 52 1011.8
20260905203035 99 116 2.0 7.0 0.00 0.00 0.00 52 1012.4
20260905201541 99 102 1.0 5.0 0.00 0.00 0.00 52 1012.3
20260905200032 99 67 2.0 10.0 0.00 0.00 0.00 52 1012.5
20260905194527 99 134 0.0 6.0 0.00 0.00 0.00 55 1012.7
20260905193023 98 151 0.0 2.0 0.00 0.00 0.00 55 1013.1
20260905191521 98 138 2.0 7.0 0.00 0.00 0.00 54 1013.3
20260905190017 96 90 1.0 6.0 0.00 0.00 0.00 57 1013.5
20260905184517 98 106 1.0 6.0 0.00 0.00 0.00 55 1013.5
20260905183027 98 119 2.0 9.0 0.00 0.00 0.00 54 1013.5
20260905181513 98 344 1.0 8.0 0.00 0.00 0.00 58 1013.7
20260905180005 98 342 0.0 3.0 0.00 0.00 0.00 60 1013.9
20260905174504 97 72 2.0 5.0 0.00 0.00 0.00 59 1014.1
20260905173002 97 103 1.0 3.0 0.00 0.00 0.00 61 1014.2
20260905171558 96 290 0.0 3.0 0.00 0.00 0.00 63 1014.4
20260905170054 95 109 1.0 3.0 0.00 0.00 0.00 64 1014.5
20260905164549 95 21 1.0 3.0 0.00 0.00 0.00 65 1014.7
20260905163045 95 170 0.0 2.0 0.00 0.00 0.00 65 1014.9
20260905161540 94 142 0.0 2.0 0.00 0.00 0.00 69 1015.0
20260905160035 93 69 0.0 4.0 0.00 0.00 0.00 70 1015.0
20260905154529 92 333 0.0 2.0 0.00 0.00 0.00 74 1015.2
20260905153025 91 117 0.0 2.0 0.00 0.00 0.00 74 1015.3
20260905151521 90 90 0.0 2.0 0.00 0.00 0.00 76 1015.3
20260905150014 88 209 0.0 2.0 0.00 0.00 0.00 79 1015.3
20260905144511 86 262 0.0 3.0 0.00 0.00 0.00 80 1015.4
20260905143006 85 268 0.0 3.0 0.00 0.00 0.00 82 1015.6
20260905141515 84 250 0.0 4.0 0.00 0.00 0.00 83 1015.4
20260905140058 83 220 0.0 1.0 0.00 0.00 0.00 84 1015.4
20260905134600 81 219 0.0 2.0 0.00 0.00 0.00 85 1015.3